Погода в Манхеттене

США     39°10′43″N   96°33′42″W
темп.,
°C
ветер,
м/с
пор.,
м/с
влажн.,
%
обл.,
%
осадки,
мм/ч
давл.,
гПа
погр.,
м
15 мая, сб
сб1501:00+15ю51493100 2.4 1018525
04:00+15ю41094100 2.8 1016545
07:00+15ююз31095100 2.8 1016483
10:00+17юз3385100 0.0 1017631
13:00+18ю2284100 0.2 1017462
16:00+21вюв327276 0.1 1015904
19:00+20вюв468295 0.2 1015276
22:00+16в49965 0.1 1016185
16 мая, вс
вс1601:00+14вюв499988 0.4 1016245
04:00+15вюв51099100 2.8 1015330
07:00+15в6999100 3.0 1015335
10:00+17вюв5996100 0.8 1015474
13:00+19ю5993100 2.6 1013677
16:00+20ююз5985100 5.1 1011603
19:00+18ююз91488100 13.1 1012488
22:00+15юв3895100 0.7 1014407
17 мая, пн
пн1701:00+15вюв3797100 0.9 1012366
04:00+14всв3598100 0.0 1012258
07:00+14всв4699100 0.1 1012297
10:00+15всв4495100 0.1 1013353
13:00+18всв4482100 0.1 1013720
16:00+19всв4481100 0.2 1012691
19:00+18всв5688100 0.3 1012425
22:00+15всв4796100 0.0 1013264
18 мая, вт
вт1801:00+15в4898100 0.3 1013282
04:00+15всв4799100 1.2 1011263
07:00+15всв6999100 2.5 1011301
10:00+17в4797100 1.3 1012408
13:00+21юв4680100 1.3 1011913
16:00+21ю6785100 0.4 1010691
19:00+20ю369096 1.3 1010443
22:00+18юв359554 0.1 1011110
19 мая, ср
ср1901:00+16ююв2397100 0.3 101257
04:00+15вюв2397100 0.0 101056
07:00+16ююв1397100 0.4 1012156
10:00+19юв118483 0.1 1013540
13:00+22ю3472100 2.6 10131164
16:00+22ююв4676100 2.1 1012794
19:00+22ю7108186 3.6 1013753
22:00+18ююв379244 0.2 1014149